Regional Weather Roundup
Issued by NWS Wakefield, VA

Home | Current Version | Previous Version | Text Only | Print | Product List | Glossary On
Versions: 1 2 3 4 5 6 7 8 9 10 11 12 13 14 15 16 17 18 19 20 21 22 23 24 25 26 27 28 29 30 31 32 33 34 35 36 37 38 39 40 41 42 43 44 45 46 47 48 49 50
000
ASUS41 KAKQ 240415
RWRAKQ

REGIONAL WEATHER ROUNDUP
NATIONAL WEATHER SERVICE WAKEFIELD VA
1200 AM EDT THU MAY 24 2018

Note: "fair" indicates few or no clouds below 12,000 feet with no
significant weather and/or obstructions to visibility. * = Denotes
station may not report precipitation (e.g., rain,snow,etc.),
thunder or fog.

VAZ042-051-052>054-056-240500-
NORTHERN VIRGINIA

CITY           SKY/WX    TMP DP  RH WIND       PRES   REMARKS
WASH NATIONAL  FAIR      69  57  65 N6        30.10R
DULLES         FAIR      62  58  86 CALM      30.11S
FORT BELVOIR   FAIR      61  59  93 CALM      30.10R
QUANTICO       FAIR      67  60  78 NW8       30.11R
FREDERICKSBRG* FAIR      67  59  77 CALM      30.10R
STAFFORD*      FAIR      61  61 100 CALM      30.14R
WARRENTON      FAIR      57  54  88 CALM      30.11S
CULPEPER*      FAIR      60  56  88 CALM      30.13R
MANASSAS*      FAIR      58  57  97 CALM      30.11S
LEESBURG*      FAIR      64  59  82 W5        30.12S
WINCHESTER     FAIR      55  54  94 CALM      30.16R
FRONT ROYAL*   FAIR      59  57  94 CALM      30.13S
LURAY*         FAIR      61  55  82 CALM      30.16R
$$

VAZ048-049-060>072-079>083-240500-
CENTRAL AND SOUTH CENTRAL VIRGINIA

CITY           SKY/WX    TMP DP  RH WIND       PRES   REMARKS
RICHMOND       FAIR      68  61  78 N7        30.10R
CHESTERFIELD*  FAIR      67  63  87 CALM      30.11R
PETERSBURG*    FAIR      69  61  76 E3        30.11R
HANOVER        FAIR      65  62  90 CALM      30.12R
TAPPAHANNOCK*  FAIR      64  62  94 CALM      30.11R
QUINTON*       FAIR      65  65  99 CALM      30.10R
CHARLOTTSVILLE FAIR      69  59  70 CALM      30.13R
GORDONSVILLE*  FAIR      63  61  94 CALM      30.13R
ORANGE*        FAIR      61  57  88 CALM      30.13R
LOUISA*        FAIR      59  57  92 NE3       30.17R
BUMPASS*       FAIR      65  61  87 CALM      30.12R
FARMVILLE*     FAIR     N/A N/A N/A NE6       30.11R
CREWE*         FAIR      71  68  92 NE3       30.11R
FORT PICKETT*  MOCLDY    70  66  88 NE3       30.11R
CHASE CITY*    CLOUDY    73  70  88 NE3       30.09R
CLARKSVILLE*   MOCLDY    72  72 100 NE3       30.07S
SOUTH HILL*    CLOUDY    71  71 100 CALM      30.14S
LAWRENCEVILLE* MOCLDY    72  67  87 CALM      30.09R
EMPORIA*         N/A     70  66  88 NE3       30.10R
$$

VAZ088>098-240500-
SOUTHEAST VIRGINIA

CITY           SKY/WX    TMP DP  RH WIND       PRES   REMARKS
NORFOLK        FAIR      72  65  78 CALM      30.07S
VIRGINIA BEACH FAIR      68  65  90 VRB3      30.06S
NORFOLK NAVAL  FAIR      68  63  84 CALM      30.09R
WEST POINT*    FAIR      66  63  91 CALM      30.11R
SALUDA*        FAIR      65  65 100 CALM      30.08R
NEWPORT NEWS   FAIR      69  60  73 N3        30.08R
LANGLEY AFB    FAIR      69  63  80 E3        30.08R
FORT EUSTIS    FAIR      71  62  75 CALM      30.06R
WILLIAMSBURG*  FAIR      70  63  78 CALM      30.09R
HR EXEC AP*    FAIR      62  62 100 CALM      30.09R
FRANKLIN*      FAIR      65  65  98 CALM      30.08S
US460-WAKEFLD  FAIR      68  65  90 CALM      30.09R FOG
$$

VAZ020-022-025-037-045-240500-
WEST CENTRAL AND SOUTHWEST VIRGINIA

CITY           SKY/WX    TMP DP  RH WIND       PRES   REMARKS
STAUNTON*      FAIR      64  55  74 N5        30.19R
WAYNESBORO*    FAIR      65  57  76 N3        30.18R
HOT SPRINGS VA FAIR      61  51  70 E7        30.26R
LYNCHBURG      FAIR      71  62  73 NE14G20   30.12R
DANVILLE       FAIR      67  67 100 CALM      30.08R
SOUTH BOSTON*  FAIR      72  69  92 NE3       30.08R
MARTINSVILLE   FAIR      63  62  97 CALM      30.13R
ROANOKE        FAIR      69  59  70 N5        30.15R
BLACKSBURG     FAIR      61  59  91 CALM      30.20S
DUBLIN*        FAIR      65  58  78 CALM      30.19R
MARION*        FAIR      62  62  98 CALM      30.23R
HILLSVILLE*    FAIR      64  57  78 N6        30.19S
RICHLANDS*     FAIR      63  30  28 CALM      30.21S
WISE*          FAIR      63  63 100 NE3       30.23R
ABINGDON*      FAIR      68  63  84 CALM      30.17S
$$

MDZ021>025-VAZ099-100-240500-
SOUTHERN MARYLAND AND THE DELMARVA PENINSULA

CITY           SKY/WX    TMP DP  RH WIND       PRES   REMARKS
PATUXENT RIVER FAIR      69  61  75 W3        30.08R
BAY BRIDGE APT FAIR      66  63  88 W3        30.08R
LEONARDTOWN    FAIR      61  59  94 CALM      30.11R
DOVER          FAIR      68  57  68 W6        30.06R
GEORGETOWN     FAIR      67  59  75 NW3       30.07R
EASTON         FAIR      65  58  79 CALM      30.11S
CAMBRIDGE        N/A     63  61  94 CALM      30.08R
SALISBURY      FAIR      65  62  90 CALM      30.07R
TANGIER        FAIR      75  66  73 N12       30.07R
OCEAN CITY     FAIR      64  60  87 NW5       30.06R
WALLOPS ISLAND FAIR      70  62  76 MISG      30.07R
ACCOMACK*      FAIR      64  62  94 CALM      30.07R
$$

NCZ012>017-030>032-240500-
NORTH CENTRAL AND EASTERN NORTH CAROLINA

CITY           SKY/WX    TMP DP  RH WIND       PRES   REMARKS
ROANOKE RAPIDS DRIZZLE   70  70 100 E3        30.08R
RALEIGH        MOCLDY    71  70  96 CALM      30.07R
ELIZABETH CITY FAIR      68  68 100 N5        30.07S
AHOSKIE*       FAIR      68  68 100 CALM      30.08S
EDENTON*       FAIR      70  68  95 CALM      30.08R
CURRITUCK*     NOT AVBL
KILL DEVIL HLS FAIR      69  69 100 CALM      30.05F
MANTEO         FAIR      68  67  97 CALM      30.07S
CAPE HATTERAS  FAIR      69  68  96 SW8       30.06S
TARBORO*       NOT AVBL
GOLDSBORO      FAIR      73  71  93 CALM      30.05R
WASHINGTON     FAIR      69  69  98 CALM      30.06S
GREENVILLE     FAIR      72  70  94 CALM      30.08S
NEW BERN       MOCLDY    69  67  93 S5        30.08F
WILMINGTON     MOCLDY    74  67  78 SW7       30.08R
$$

VAZ048-240500-
ELSEWHERE

CITY           SKY/WX    TMP DP  RH WIND       PRES   REMARKS
HARRISBURG PA  FAIR      60  57  89 NW5       30.08R
BALTIMORE      FAIR      63  58  83 W3        30.08S
ANNAPOLIS        N/A    N/A N/A N/A MISG      30.08R
ANDREWS AFB    FAIR      64  57  77 CALM      30.09R
PHILADELPHIA   FAIR      66  55  67 SW5       30.05R
HENDERSON NC   MOCLDY    70  66  88 CALM      30.08R
GREENSBORO     MOCLDY    71  67  87 CALM      30.09R
ROCKY MOUNT    FAIR      69  68  96 CALM      30.07R
$$

VAZ100-240500-
MARINE

STATION/POSITION TIME  TEMP    WIND        PRES    WAVE   SWELL
                       AIR SEA DIR/SP/G            HT/PER HT/PER
                 (UTC) (F)     (DEG/KT/KT) (MB)    (FT/S) (FT/S)
BRANDYWINE LGT   0336   72     330/  8/  9 1018.0R
CAPE MAY NJ      0336   69 69   CALM  /  2 1017.1R
LEWES DE         0336   71 67  320/  8/ 10 1017.6R
15NM E FENWICK I 0350   63 62  320/  6/  8 1018.0R   3/ 5   2/ 5
OCEAN-CITY-INLET 0336   71 71  340/  5/  7 1018.3R
WACHAPREAGUE VA  0336   67 80  280/  1/  2 1017.9S
THOMAS POINT MD  0400   70 68  290/  6/  7 1019.6R
GOOSES REEF MD   0400   71     360/  6/  6 1019.0    0
COVE POINT MD    0336   71     340/  6/  8 1019.2R
SOLOMONS ISLAND  0336   71 71  310/  2/  5 1018.5R
BISHOPS HEAD MD  0336   71 78  340/  4/  4 1018.9R
PINEY POINT MD   0336           40/  4/  4   N/A
POTOMAC MD       0400   71 71   20/  6/  6 1018.1    0
CAMBRIDGE MD     0336   69 74              1019.4R
LEWISETTA VA     0336   71 75  320/  3/  3 1018.7R
RAPPAHANNOCK LGT 0336          310/  7/  7 1018.8R
STINGRAY PT      0350   74      10/  8/  8 1017.6F
YORK RVR RNG VA  0336   75      20/  9/ 11 1018.9R
YORKTOWN VA      0336   74 77   10/  5/  6 1018.0R
DOMINION TERM VA 0336   75      40/  2/  3 1018.8R
KIPTOPEKE VA     0336      71   30/  4/  5   N/A
CAPE HENRY VA    0336   74      10/  6/  8   N/A
WILLOUBY STN VA  0336           30/  6/  7   N/A
S CRANEY ISL VA  0336   75      90/  2/  4 1018.3R
CAPE HENRY BUOY  0400      70                N/A     2/ 8
1ST LANDING BUOY 0400   72 71   30/  4/  4 1018.3    1/ 4
64NM E OF VA BCH 0350   71 70  270/  6/  8 1017.9R   4/ 6   3/ 6
DUCK PIER NC     0336   73 67  310/  6/  6 1017.8R
44100 DUCK FRF   0315      71                N/A     2/ 8
44056 DUCK FRF   0330      66                N/A     2/ 8
OREGON INLET NC  0336   72 79  260/  5/  6 1017.9R
HATTERAS NC      0336   70 76  220/  8/ 10 1017.5F
DIAMOND SHLS NC  0350   70 74  220/ 14/ 17 1018.0F   4/ 6   2/ 7
CAPE LOOKOUT NC  0300          230/ 10/ 14 1018.3R
$$



USA.gov is the U.S. government's official web portal to all federal, state and local government web resources and services.